EUTELSAT HOT BIRD 13D

Last updated on Aug. 21, 2016, 9:38 a.m. UTC

1 33750U 09008B   16234.06103610  .00000137  00000-0  00000+0 0  9998
2 33750   0.0162 328.9496 0005624 213.1046 202.7987  1.00272235 27639
UTC
Height (km)
Latitude
Longitude
Inclination
Orbital Period
UTC large
Height (km)
Speed (km/s)
/
Latitude / Longitude
Inclination (degrees)
Orbital Period (minutes)
Azimuth
Elevation
Range (km)
Doppler Factor
iOS Compass Heading
iOS Angle

Next 30 passes for location: Hong Kong

Rise time Rise Azimuth (degrees) Set time Set Azimuth (degrees) Duration Max altitude (degrees)

No matching passes for this satellites